TimePST,TemperatureF,Dew PointF,Humidity,Sea Level PressureIn,VisibilityMPH,Wind Direction,Wind SpeedMPH,Gust SpeedMPH,PrecipitationIn,Events,Conditions,WindDirDegrees,DateUTC
12:53 AM,36.0,18.0,48,30.20,10.0,SE,4.6,-,N/A,,Clear,130,2013-01-03 08:53:00
1:53 AM,33.1,19.0,56,30.22,10.0,Calm,Calm,-,N/A,,Clear,0,2013-01-03 09:53:00
2:53 AM,30.9,24.1,76,30.22,10.0,SSE,4.6,-,N/A,,Clear,150,2013-01-03 10:53:00
3:53 AM,28.9,25.0,85,30.20,10.0,Calm,Calm,-,N/A,,Clear,0,2013-01-03 11:53:00
4:53 AM,28.0,24.1,85,30.18,9.0,Calm,Calm,-,N/A,,Clear,0,2013-01-03 12:53:00
5:53 AM,27.0,25.0,92,30.17,9.0,Calm,Calm,-,N/A,,Clear,0,2013-01-03 13:53:00
6:53 AM,27.0,24.1,89,30.15,9.0,SE,4.6,-,N/A,,Clear,140,2013-01-03 14:53:00
7:53 AM,27.0,24.1,89,30.15,9.0,Calm,Calm,-,N/A,,Clear,0,2013-01-03 15:53:00
8:53 AM,34.0,19.0,54,30.15,10.0,SSE,3.5,-,N/A,,Clear,160,2013-01-03 16:53:00
9:53 AM,37.0,21.0,52,30.16,10.0,Calm,Calm,-,N/A,,Clear,0,2013-01-03 17:53:00
10:53 AM,41.0,21.0,45,30.16,10.0,South,6.9,-,N/A,,Clear,170,2013-01-03 18:53:00
11:53 AM,43.0,21.0,42,30.14,10.0,SSE,8.1,-,N/A,,Clear,150,2013-01-03 19:53:00
12:53 PM,45.0,19.0,36,30.13,10.0,SSE,8.1,-,N/A,,Clear,160,2013-01-03 20:53:00
1:53 PM,46.0,19.0,34,30.12,10.0,SE,5.8,-,N/A,,Clear,140,2013-01-03 21:53:00
2:53 PM,45.0,19.9,37,30.14,10.0,South,10.4,-,N/A,,Clear,170,2013-01-03 22:53:00
3:53 PM,43.0,19.9,40,30.15,10.0,ESE,8.1,-,N/A,,Overcast,110,2013-01-03 23:53:00
4:53 PM,41.0,19.9,43,30.14,10.0,South,8.1,-,N/A,,Overcast,170,2013-01-04 00:53:00
5:53 PM,42.1,19.9,41,30.12,10.0,East,3.5,-,N/A,,Overcast,100,2013-01-04 01:53:00
6:53 PM,37.9,30.0,73,30.15,8.0,Calm,Calm,-,0.03,Rain,Light Rain,0,2013-01-04 02:53:00
7:53 PM,37.0,30.9,79,30.15,10.0,East,10.4,16.1,0.02,Rain,Light Rain,100,2013-01-04 03:53:00
8:53 PM,37.0,33.1,86,30.15,10.0,ESE,4.6,-,0.01,Rain,Light Rain,120,2013-01-04 04:53:00
9:53 PM,37.9,33.1,83,30.17,10.0,Calm,Calm,-,0.02,Rain,Light Rain,0,2013-01-04 05:53:00
10:53 PM,37.0,34.0,89,30.18,9.0,Calm,Calm,-,0.01,Rain,Light Rain,0,2013-01-04 06:53:00
11:53 PM,37.0,34.0,89,30.19,6.0,Calm,Calm,-,0.02,Rain,Light Rain,0,2013-01-04 07:53:00